CommID,deviceName,DataDateTime,GPSLatitude,GPSLongitude,Submerged,gpsQuality,BatteryVoltage,SST,IridiumLatitude,IridiumLongitude,IridiumRadiusKm,orgName,bPressTend,windDir,windSpeed,bPress,SurfaceSalinity,temperature7m,salinity7m,temperature15m,salinity15m
300234011885250,SFOS-MS-0006,9/13/2012 12:00:08 PM,64.152977,-51.904225,False,3,9.0,4.10,64.119970,-51.566700,12,School of Fisheries and Ocean Sciences,,,,,,,,,
300234011885250,SFOS-MS-0006,9/13/2012 11:30:09 AM,64.153016,-51.904186,False,3,9.0,4.10,64.119970,-51.566700,5,School of Fisheries and Ocean Sciences,,,,,,,,,
300234011885250,SFOS-MS-0006,9/13/2012 11:00:37 AM,64.152988,-51.904242,False,3,9.0,4.30,64.953200,-51.597110,3,School of Fisheries and Ocean Sciences,,,,,,,,,
300234011885250,SFOS-MS-0006,9/13/2012 10:30:08 AM,64.153030,-51.904420,False,3,9.0,4.70,64.866600,-51.489040,2,School of Fisheries and Ocean Sciences,,,,,,,,,
300234011885250,SFOS-MS-0006,9/13/2012 10:00:08 AM,64.152982,-51.904270,False,3,9.0,5.05,64.119970,-51.566700,11,School of Fisheries and Ocean Sciences,,,,,,,,,
300234011885250,SFOS-MS-0006,9/13/2012 9:30:08 AM,64.152991,-51.904300,False,3,9.0,5.25,64.108010,-51.527830,5,School of Fisheries and Ocean Sciences,,,,,,,,,
300234011885250,SFOS-MS-0006,9/13/2012 9:00:37 AM,64.152985,-51.904253,False,3,9.0,5.60,64.494500,-53.333940,103,School of Fisheries and Ocean Sciences,,,,,,,,,
300234011885250,SFOS-MS-0006,9/13/2012 8:30:07 AM,64.152999,-51.904250,False,3,9.0,5.70,64.744300,-53.304670,104,School of Fisheries and Ocean Sciences,,,,,,,,,
300234011885250,SFOS-MS-0006,9/13/2012 8:00:06 AM,64.152905,-51.904164,False,3,9.0,5.65,64.866600,-51.489040,2,School of Fisheries and Ocean Sciences,,,,,,,,,
300234011885250,SFOS-MS-0006,9/13/2012 7:30:37 AM,64.152952,-51.904147,False,3,9.0,5.60,64.866600,-51.489040,2,School of Fisheries and Ocean Sciences,,,,,,,,,
300234011885250,SFOS-MS-0006,9/13/2012 7:00:13 AM,64.152969,-51.904067,False,3,9.0,5.60,64.714300,-51.519490,4,School of Fisheries and Ocean Sciences,,,,,,,,,
300234011885250,SFOS-MS-0006,9/13/2012 6:30:08 AM,64.152946,-51.904075,False,3,9.0,5.55,64.182920,-54.271620,144,School of Fisheries and Ocean Sciences,,,,,,,,,
300234011885250,SFOS-MS-0006,9/13/2012 6:00:14 AM,64.152960,-51.904142,False,3,9.0,5.55,64.464500,-47.505280,212,School of Fisheries and Ocean Sciences,,,,,,,,,
300234011885250,SFOS-MS-0006,9/13/2012 5:30:08 AM,64.152774,-51.903945,False,3,9.0,5.50,64.866600,-51.489040,2,School of Fisheries and Ocean Sciences,,,,,,,,,
300234011885250,SFOS-MS-0006,9/13/2012 5:00:07 AM,64.152977,-51.904228,False,3,9.0,5.40,64.833800,-51.558270,2,School of Fisheries and Ocean Sciences,,,,,,,,,
300234011885250,SFOS-MS-0006,9/13/2012 4:30:07 AM,64.152944,-51.904222,False,3,9.0,5.40,64.953200,-51.597110,3,School of Fisheries and Ocean Sciences,,,,,,,,,
300234011885250,SFOS-MS-0006,9/13/2012 4:00:38 AM,64.152955,-51.904200,False,3,9.0,5.25,63.589360,-48.211730,185,School of Fisheries and Ocean Sciences,,,,,,,,,
300234011885250,SFOS-MS-0006,9/13/2012 3:30:09 AM,64.152985,-51.904247,False,3,9.0,5.05,64.833800,-51.558270,3,School of Fisheries and Ocean Sciences,,,,,,,,,
300234011885250,SFOS-MS-0006,9/13/2012 3:00:08 AM,64.152955,-51.904184,False,3,9.0,4.85,64.714300,-51.519490,1,School of Fisheries and Ocean Sciences,,,,,,,,,
300234011885250,SFOS-MS-0006,9/13/2012 2:30:08 AM,64.152902,-51.904145,False,3,9.0,4.60,64.986300,-51.527830,7,School of Fisheries and Ocean Sciences,,,,,,,,,
300234011885250,SFOS-MS-0006,9/13/2012 2:00:08 AM,64.152999,-51.904217,False,3,9.0,4.45,64.833800,-51.558270,3,School of Fisheries and Ocean Sciences,,,,,,,,,
300234011885250,SFOS-MS-0006,9/13/2012 1:30:07 AM,64.152999,-51.904250,False,3,9.0,4.15,64.833800,-51.558270,3,School of Fisheries and Ocean Sciences,,,,,,,,,
300234011885250,SFOS-MS-0006,9/13/2012 1:00:37 AM,64.152991,-51.904211,False,3,9.0,4.25,64.833800,-51.558270,3,School of Fisheries and Ocean Sciences,,,,,,,,,
300234011885250,SFOS-MS-0006,9/13/2012 12:30:08 AM,64.153007,-51.904400,False,3,9.0,4.55,64.714300,-51.519490,3,School of Fisheries and Ocean Sciences,,,,,,,,,
300234011885250,SFOS-MS-0006,9/13/2012 12:00:08 AM,64.153007,-51.904431,False,3,9.0,4.95,64.122580,-52.460670,20,School of Fisheries and Ocean Sciences,,,,,,,,,
300234011885250,SFOS-MS-0006,9/12/2012 11:30:08 PM,64.153021,-51.904384,False,3,9.0,5.35,64.108010,-51.527830,13,School of Fisheries and Ocean Sciences,,,,,,,,,
300234011885250,SFOS-MS-0006,9/12/2012 11:00:08 PM,64.152957,-51.904303,False,3,9.0,5.75,64.986300,-51.527830,3,School of Fisheries and Ocean Sciences,,,,,,,,,
300234011885250,SFOS-MS-0006,9/12/2012 10:30:37 PM,64.152977,-51.904192,False,3,9.0,6.45,64.119970,-51.566700,9,School of Fisheries and Ocean Sciences,,,,,,,,,
300234011885250,SFOS-MS-0006,9/12/2012 10:00:10 PM,64.153035,-51.904320,False,3,9.0,6.90,64.850600,-52.204730,102,School of Fisheries and Ocean Sciences,,,,,,,,,
300234011885250,SFOS-MS-0006,9/12/2012 9:30:08 PM,64.152980,-51.904070,False,3,9.0,7.15,63.579440,-45.312190,319,School of Fisheries and Ocean Sciences,,,,,,,,,
300234011885250,SFOS-MS-0006,9/12/2012 9:00:08 PM,64.153005,-51.904245,False,3,9.0,7.50,64.108010,-51.527830,4,School of Fisheries and Ocean Sciences,,,,,,,,,
300234011885250,SFOS-MS-0006,9/12/2012 8:30:11 PM,64.153005,-51.904217,False,3,9.0,7.60,64.108010,-51.527830,4,School of Fisheries and Ocean Sciences,,,,,,,,,
300234011885250,SFOS-MS-0006,9/12/2012 8:00:37 PM,64.153010,-51.904225,False,3,9.0,7.80,64.204050,-55.179760,180,School of Fisheries and Ocean Sciences,,,,,,,,,
300234011885250,SFOS-MS-0006,9/12/2012 7:30:16 PM,64.152930,-51.903997,False,3,9.0,8.25,64.518200,-48.289350,183,School of Fisheries and Ocean Sciences,,,,,,,,,
300234011885250,SFOS-MS-0006,9/12/2012 7:00:07 PM,64.152955,-51.904103,False,3,9.0,8.80,64.866600,-51.489040,2,School of Fisheries and Ocean Sciences,,,,,,,,,
300234011885250,SFOS-MS-0006,9/12/2012 7:00:07 PM,64.152955,-51.904103,False,3,9.0,8.80,64.204500,-39.347700,629,School of Fisheries and Ocean Sciences,,,,,,,,,
300234011885250,SFOS-MS-0006,9/12/2012 6:30:07 PM,64.152938,-51.904134,False,3,9.0,10.15,64.833800,-51.558270,3,School of Fisheries and Ocean Sciences,,,,,,,,,
300234011885250,SFOS-MS-0006,9/12/2012 6:00:08 PM,64.152952,-51.904178,False,3,9.0,10.35,64.108010,-51.527830,5,School of Fisheries and Ocean Sciences,,,,,,,,,
300234011885250,SFOS-MS-0006,9/12/2012 5:30:38 PM,64.152960,-51.904170,False,3,9.0,8.90,64.494500,-53.333940,106,School of Fisheries and Ocean Sciences,,,,,,,,,
300234011885250,SFOS-MS-0006,9/12/2012 5:00:08 PM,64.152932,-51.904192,False,3,9.0,9.60,64.714300,-51.519490,9,School of Fisheries and Ocean Sciences,,,,,,,,,
300234011885250,SFOS-MS-0006,9/12/2012 4:30:07 PM,64.152871,-51.904059,False,3,9.0,9.50,64.119970,-51.566700,8,School of Fisheries and Ocean Sciences,,,,,,,,,
300234011885250,SFOS-MS-0006,9/12/2012 4:00:07 PM,64.152996,-51.904222,False,3,9.0,9.45,64.953200,-51.597110,2,School of Fisheries and Ocean Sciences,,,,,,,,,
300234011885250,SFOS-MS-0006,9/12/2012 3:30:08 PM,64.152966,-51.904239,False,3,9.0,9.55,64.833800,-51.558270,2,School of Fisheries and Ocean Sciences,,,,,,,,,
300234011885250,SFOS-MS-0006,9/12/2012 3:00:38 PM,64.152982,-51.904250,False,3,9.0,9.55,64.953200,-51.597110,5,School of Fisheries and Ocean Sciences,,,,,,,,,
300234011885250,SFOS-MS-0006,9/12/2012 2:30:09 PM,64.152913,-51.904561,False,3,9.0,9.15,64.108010,-51.527830,5,School of Fisheries and Ocean Sciences,,,,,,,,,
300234011885250,SFOS-MS-0006,9/12/2012 2:00:07 PM,64.153016,-51.904289,False,3,9.0,8.20,64.986300,-51.527830,1,School of Fisheries and Ocean Sciences,,,,,,,,,
300234011885250,SFOS-MS-0006,9/12/2012 1:30:10 PM,64.152988,-51.904220,False,3,9.0,7.70,64.866600,-51.489040,2,School of Fisheries and Ocean Sciences,,,,,,,,,
300234011885250,SFOS-MS-0006,9/12/2012 1:00:08 PM,64.152991,-51.904211,False,3,9.0,7.40,64.953200,-51.597110,4,School of Fisheries and Ocean Sciences,,,,,,,,,
300234011885250,SFOS-MS-0006,9/12/2012 12:30:37 PM,64.152999,-51.904225,False,3,9.0,7.20,64.119970,-51.566700,5,School of Fisheries and Ocean Sciences,,,,,,,,,
300234011885250,SFOS-MS-0006,9/12/2012 12:00:09 PM,64.152994,-51.904328,False,3,9.0,6.65,64.833800,-51.558270,1,School of Fisheries and Ocean Sciences,,,,,,,,,
300234011885250,SFOS-MS-0006,9/12/2012 11:30:08 AM,64.153007,-51.904228,False,3,9.0,6.20,64.833800,-51.558270,2,School of Fisheries and Ocean Sciences,,,,,,,,,
300234011885250,SFOS-MS-0006,9/12/2012 11:00:37 AM,64.152985,-51.904242,False,3,9.0,6.00,64.125820,-50.395060,89,School of Fisheries and Ocean Sciences,,,,,,,,,
300234011885250,SFOS-MS-0006,9/12/2012 10:30:08 AM,64.153016,-51.904281,False,3,9.0,5.55,64.474810,-44.634500,388,School of Fisheries and Ocean Sciences,,,,,,,,,
300234011885250,SFOS-MS-0006,9/12/2012 10:00:37 AM,64.152969,-51.904239,False,3,9.0,5.50,64.866600,-51.489040,2,School of Fisheries and Ocean Sciences,,,,,,,,,
300234011885250,SFOS-MS-0006,9/12/2012 9:30:08 AM,64.152994,-51.904264,False,3,9.0,5.55,64.714300,-51.519490,4,School of Fisheries and Ocean Sciences,,,,,,,,,
300234011885250,SFOS-MS-0006,9/12/2012 9:00:10 AM,64.152985,-51.904236,False,3,9.0,5.50,64.138100,-50.433310,101,School of Fisheries and Ocean Sciences,,,,,,,,,
300234011885250,SFOS-MS-0006,9/12/2012 8:30:08 AM,64.152988,-51.904200,False,3,9.0,5.55,64.953200,-51.597110,3,School of Fisheries and Ocean Sciences,,,,,,,,,
300234011885250,SFOS-MS-0006,9/12/2012 8:00:37 AM,64.152910,-51.904184,False,3,9.0,5.50,64.833800,-51.558270,2,School of Fisheries and Ocean Sciences,,,,,,,,,
300234011885250,SFOS-MS-0006,9/12/2012 7:30:09 AM,64.152894,-51.903961,False,3,9.0,5.30,64.986300,-51.527830,2,School of Fisheries and Ocean Sciences,,,,,,,,,
300234011885250,SFOS-MS-0006,9/12/2012 7:00:07 AM,64.153002,-51.904189,False,3,9.0,5.60,64.119970,-51.566700,10,School of Fisheries and Ocean Sciences,,,,,,,,,
300234011885250,SFOS-MS-0006,9/12/2012 6:30:08 AM,64.153032,-51.904231,False,3,9.0,5.95,64.107150,-52.490530,96,School of Fisheries and Ocean Sciences,,,,,,,,,
300234011885250,SFOS-MS-0006,9/12/2012 6:00:08 AM,64.153016,-51.904228,False,3,9.0,6.30,63.579440,-45.312190,318,School of Fisheries and Ocean Sciences,,,,,,,,,
300234011885250,SFOS-MS-0006,9/12/2012 5:30:08 AM,64.153016,-51.904197,False,3,9.0,6.45,64.108010,-51.527830,4,School of Fisheries and Ocean Sciences,,,,,,,,,
300234011885250,SFOS-MS-0006,9/12/2012 5:00:38 AM,64.152982,-51.904186,False,3,9.0,6.65,64.866600,-51.489040,2,School of Fisheries and Ocean Sciences,,,,,,,,,
300234011885250,SFOS-MS-0006,9/12/2012 4:30:18 AM,64.152824,-51.903984,False,3,9.0,6.70,64.866600,-51.489040,10,School of Fisheries and Ocean Sciences,,,,,,,,,
300234011885250,SFOS-MS-0006,9/12/2012 4:00:07 AM,64.152896,-51.904128,False,3,9.0,6.70,64.483800,-48.428270,176,School of Fisheries and Ocean Sciences,,,,,,,,,
300234011885250,SFOS-MS-0006,9/12/2012 3:30:08 AM,64.152985,-51.904236,False,3,9.0,6.70,64.833800,-51.558270,2,School of Fisheries and Ocean Sciences,,,,,,,,,
300234011885250,SFOS-MS-0006,9/12/2012 3:00:08 AM,64.152999,-51.904211,False,3,9.0,6.70,64.833800,-51.558270,2,School of Fisheries and Ocean Sciences,,,,,,,,,
300234011885250,SFOS-MS-0006,9/12/2012 2:30:37 AM,64.152982,-51.904197,False,3,9.0,6.75,64.232090,-55.371790,194,School of Fisheries and Ocean Sciences,,,,,,,,,
300234011885250,SFOS-MS-0006,9/12/2012 2:00:10 AM,64.153016,-51.904384,False,3,9.0,6.75,64.953200,-51.597110,10,School of Fisheries and Ocean Sciences,,,,,,,,,
300234011885250,SFOS-MS-0006,9/12/2012 1:30:07 AM,64.152999,-51.904242,False,3,9.0,6.75,64.428100,-49.365000,151,School of Fisheries and Ocean Sciences,,,,,,,,,
300234011885250,SFOS-MS-0006,9/12/2012 1:00:07 AM,64.153027,-51.904314,False,3,9.0,6.75,64.986300,-51.527830,4,School of Fisheries and Ocean Sciences,,,,,,,,,
300234011885250,SFOS-MS-0006,9/12/2012 12:30:08 AM,64.153010,-51.904267,False,3,9.0,6.75,64.833800,-51.558270,2,School of Fisheries and Ocean Sciences,,,,,,,,,
300234011885250,SFOS-MS-0006,9/12/2012 12:00:37 AM,64.153013,-51.904286,False,3,9.0,6.80,64.953200,-51.597110,4,School of Fisheries and Ocean Sciences,,,,,,,,,
300234011885250,SFOS-MS-0006,9/11/2012 11:30:14 PM,64.153021,-51.904072,False,3,9.0,6.85,64.953200,-51.597110,2,School of Fisheries and Ocean Sciences,,,,,,,,,
300234011885250,SFOS-MS-0006,9/11/2012 11:00:07 PM,64.152988,-51.904320,False,3,9.0,6.95,64.714300,-51.519490,2,School of Fisheries and Ocean Sciences,,,,,,,,,
300234011885250,SFOS-MS-0006,9/11/2012 10:30:07 PM,64.152988,-51.904142,False,3,9.0,7.00,64.866600,-51.489040,3,School of Fisheries and Ocean Sciences,,,,,,,,,
300234011885250,SFOS-MS-0006,9/11/2012 10:00:10 PM,64.152946,-51.904109,False,3,9.0,7.10,64.134300,-52.500040,146,School of Fisheries and Ocean Sciences,,,,,,,,,
300234011885250,SFOS-MS-0006,9/11/2012 9:30:08 PM,64.152963,-51.904089,False,3,9.0,7.20,64.861700,-46.272330,286,School of Fisheries and Ocean Sciences,,,,,,,,,
300234011885250,SFOS-MS-0006,9/11/2012 9:00:37 PM,64.152982,-51.904159,False,3,9.0,7.35,64.833800,-51.558270,2,School of Fisheries and Ocean Sciences,,,,,,,,,
300234011885250,SFOS-MS-0006,9/11/2012 8:30:08 PM,64.153035,-51.904297,False,3,9.0,7.45,64.110590,-51.566700,3,School of Fisheries and Ocean Sciences,,,,,,,,,
300234011885250,SFOS-MS-0006,9/11/2012 8:00:07 PM,64.153002,-51.904203,False,3,9.0,7.55,64.118850,-52.529880,86,School of Fisheries and Ocean Sciences,,,,,,,,,
300234011885250,SFOS-MS-0006,9/11/2012 7:30:07 PM,64.153005,-51.904300,False,3,9.0,7.55,64.108010,-51.527830,8,School of Fisheries and Ocean Sciences,,,,,,,,,
300234011885250,SFOS-MS-0006,9/11/2012 7:00:06 PM,64.152977,-51.904222,False,3,9.0,7.70,64.986300,-51.527830,3,School of Fisheries and Ocean Sciences,,,,,,,,,
300234011885250,SFOS-MS-0006,9/11/2012 6:30:13 PM,64.152957,-51.904214,False,3,9.0,7.65,64.866600,-51.489040,2,School of Fisheries and Ocean Sciences,,,,,,,,,
300234011885250,SFOS-MS-0006,9/11/2012 6:00:38 PM,64.152960,-51.904220,False,3,9.0,7.70,64.714300,-51.519490,4,School of Fisheries and Ocean Sciences,,,,,,,,,
300234011885250,SFOS-MS-0006,9/11/2012 5:30:08 PM,64.152988,-51.904167,False,3,9.0,7.80,64.129650,-51.419900,118,School of Fisheries and Ocean Sciences,,,,,,,,,
300234011885250,SFOS-MS-0006,9/11/2012 5:00:08 PM,64.152980,-51.904228,False,3,9.0,7.90,64.407460,-44.528820,349,School of Fisheries and Ocean Sciences,,,,,,,,,
300234011885250,SFOS-MS-0006,9/11/2012 4:30:07 PM,64.152963,-51.904181,False,3,9.0,8.00,64.833800,-51.558270,3,School of Fisheries and Ocean Sciences,,,,,,,,,
300234011885250,SFOS-MS-0006,9/11/2012 4:00:38 PM,64.152991,-51.904211,False,3,9.0,8.00,64.119970,-51.566700,9,School of Fisheries and Ocean Sciences,,,,,,,,,
300234011885250,SFOS-MS-0006,9/11/2012 3:30:09 PM,64.153082,-51.904467,False,3,9.0,8.10,64.953200,-51.597110,4,School of Fisheries and Ocean Sciences,,,,,,,,,
300234011885250,SFOS-MS-0006,9/11/2012 3:00:11 PM,64.152980,-51.904192,False,3,9.0,8.10,64.866600,-51.489040,2,School of Fisheries and Ocean Sciences,,,,,,,,,
300234011885250,SFOS-MS-0006,9/11/2012 2:30:08 PM,64.152955,-51.904178,False,3,9.0,8.35,64.866600,-51.489040,2,School of Fisheries and Ocean Sciences,,,,,,,,,
300234011885250,SFOS-MS-0006,9/11/2012 2:00:13 PM,64.153102,-51.904481,False,3,9.0,8.60,64.108010,-51.527830,9,School of Fisheries and Ocean Sciences,,,,,,,,,
300234011885250,SFOS-MS-0006,9/11/2012 1:30:07 PM,64.152877,-51.903986,False,3,9.0,8.70,64.578900,-54.265940,145,School of Fisheries and Ocean Sciences,,,,,,,,,
300234011885250,SFOS-MS-0006,9/11/2012 1:00:37 PM,64.152944,-51.904153,False,3,9.0,9.10,64.246840,-47.596560,205,School of Fisheries and Ocean Sciences,,,,,,,,,
300234011885250,SFOS-MS-0006,9/11/2012 12:30:11 PM,64.153005,-51.904156,False,3,9.0,8.60,64.833800,-51.558270,5,School of Fisheries and Ocean Sciences,,,,,,,,,
300234011885250,SFOS-MS-0006,9/11/2012 12:00:08 PM,64.152974,-51.904239,False,3,9.0,7.90,64.104700,-51.597110,4,School of Fisheries and Ocean Sciences,,,,,,,,,
300234011885250,SFOS-MS-0006,9/11/2012 11:30:12 AM,64.152980,-51.904225,False,3,9.0,7.65,64.833800,-51.558270,2,School of Fisheries and Ocean Sciences,,,,,,,,,
300234011885250,SFOS-MS-0006,9/11/2012 11:00:37 AM,64.152985,-51.904225,False,3,9.0,7.55,64.833800,-51.558270,2,School of Fisheries and Ocean Sciences,,,,,,,,,
300234011885250,SFOS-MS-0006,9/11/2012 10:30:37 AM,64.153007,-51.904253,False,3,9.0,7.45,64.953200,-51.597110,2,School of Fisheries and Ocean Sciences,,,,,,,,,
300234011885250,SFOS-MS-0006,9/11/2012 10:00:26 AM,64.152752,-51.903764,False,3,9.0,7.50,64.108010,-51.527830,3,School of Fisheries and Ocean Sciences,,,,,,,,,
300234011885250,SFOS-MS-0006,9/11/2012 9:30:08 AM,64.152999,-51.904297,False,3,9.0,7.50,64.866600,-51.489040,3,School of Fisheries and Ocean Sciences,,,,,,,,,
300234011885250,SFOS-MS-0006,9/11/2012 9:00:08 AM,64.152960,-51.904222,False,3,9.0,7.40,64.114570,-51.730200,374,School of Fisheries and Ocean Sciences,,,,,,,,,
300234011885250,SFOS-MS-0006,9/11/2012 8:30:08 AM,64.152957,-51.904153,False,3,9.0,7.35,64.119970,-51.566700,8,School of Fisheries and Ocean Sciences,,,,,,,,,
300234011885250,SFOS-MS-0006,9/11/2012 8:00:37 AM,64.152960,-51.904184,False,3,9.0,7.35,64.866600,-51.489040,2,School of Fisheries and Ocean Sciences,,,,,,,,,
300234011885250,SFOS-MS-0006,9/11/2012 7:30:09 AM,64.152938,-51.904064,False,3,9.0,7.35,64.714300,-51.519490,2,School of Fisheries and Ocean Sciences,,,,,,,,,
300234011885250,SFOS-MS-0006,9/11/2012 7:00:08 AM,64.153016,-51.904250,False,3,9.0,7.35,64.953200,-51.597110,67,School of Fisheries and Ocean Sciences,,,,,,,,,
300234011885250,SFOS-MS-0006,9/11/2012 6:30:11 AM,64.153016,-51.904200,False,3,9.0,7.35,64.134300,-52.500040,176,School of Fisheries and Ocean Sciences,,,,,,,,,
300234011885250,SFOS-MS-0006,9/11/2012 6:00:08 AM,64.152988,-51.904189,False,3,9.0,7.35,64.861700,-46.272330,288,School of Fisheries and Ocean Sciences,,,,,,,,,
300234011885250,SFOS-MS-0006,9/11/2012 5:30:07 AM,64.153019,-51.904172,False,3,9.0,7.45,64.833800,-51.558270,1,School of Fisheries and Ocean Sciences,,,,,,,,,
300234011885250,SFOS-MS-0006,9/11/2012 5:00:07 AM,64.152980,-51.904206,False,3,9.0,7.45,64.953200,-51.597110,3,School of Fisheries and Ocean Sciences,,,,,,,,,
300234011885250,SFOS-MS-0006,9/11/2012 4:30:38 AM,64.152938,-51.904178,False,3,9.0,7.45,64.126720,-53.385200,88,School of Fisheries and Ocean Sciences,,,,,,,,,
300234011885250,SFOS-MS-0006,9/11/2012 4:00:08 AM,64.152957,-51.904170,False,3,9.0,7.35,64.953200,-51.597110,8,School of Fisheries and Ocean Sciences,,,,,,,,,
300234011885250,SFOS-MS-0006,9/11/2012 3:30:08 AM,64.152982,-51.904309,False,3,9.0,7.30,64.866600,-51.489040,1,School of Fisheries and Ocean Sciences,,,,,,,,,
300234011885250,SFOS-MS-0006,9/11/2012 3:00:11 AM,64.152971,-51.904203,False,3,9.0,7.30,64.986300,-51.527830,6,School of Fisheries and Ocean Sciences,,,,,,,,,
300234011885250,SFOS-MS-0006,9/11/2012 2:30:37 AM,64.153002,-51.904206,False,3,9.0,7.30,64.116630,-52.360200,30,School of Fisheries and Ocean Sciences,,,,,,,,,
300234011885250,SFOS-MS-0006,9/11/2012 2:00:07 AM,64.153030,-51.904481,False,3,9.0,7.30,64.119970,-51.566700,6,School of Fisheries and Ocean Sciences,,,,,,,,,
300234011885250,SFOS-MS-0006,9/11/2012 1:30:08 AM,64.152996,-51.904261,False,3,9.0,7.35,64.953200,-51.597110,2,School of Fisheries and Ocean Sciences,,,,,,,,,
300234011885250,SFOS-MS-0006,9/11/2012 1:00:08 AM,64.153019,-51.904309,False,3,9.0,7.40,64.108010,-51.527830,6,School of Fisheries and Ocean Sciences,,,,,,,,,
300234011885250,SFOS-MS-0006,9/11/2012 12:30:08 AM,64.153007,-51.904300,False,3,9.0,7.35,64.253150,-56.172140,225,School of Fisheries and Ocean Sciences,,,,,,,,,
300234011885250,SFOS-MS-0006,9/11/2012 12:00:37 AM,64.153005,-51.904281,False,3,9.0,7.40,64.691300,-49.388780,142,School of Fisheries and Ocean Sciences,,,,,,,,,
300234011885250,SFOS-MS-0006,9/10/2012 11:30:10 PM,64.153030,-51.904320,False,3,9.0,7.50,64.866600,-51.489040,2,School of Fisheries and Ocean Sciences,,,,,,,,,
300234011885250,SFOS-MS-0006,9/10/2012 11:00:08 PM,64.153013,-51.904234,False,3,9.0,7.55,64.108010,-51.527830,8,School of Fisheries and Ocean Sciences,,,,,,,,,
300234011885250,SFOS-MS-0006,9/10/2012 10:30:08 PM,64.152999,-51.904195,False,3,9.0,7.75,64.714300,-51.519490,6,School of Fisheries and Ocean Sciences,,,,,,,,,
300234011885250,SFOS-MS-0006,9/10/2012 10:00:08 PM,64.152985,-51.904161,False,3,9.0,7.90,64.454100,-50.204830,103,School of Fisheries and Ocean Sciences,,,,,,,,,
300234011885250,SFOS-MS-0006,9/10/2012 9:30:08 PM,64.152966,-51.904128,False,3,9.0,7.90,64.108010,-51.527830,7,School of Fisheries and Ocean Sciences,,,,,,,,,
300234011885250,SFOS-MS-0006,9/10/2012 9:00:37 PM,64.152977,-51.904181,False,3,9.0,7.85,64.866600,-51.489040,2,School of Fisheries and Ocean Sciences,,,,,,,,,
300234011885250,SFOS-MS-0006,9/10/2012 8:30:07 PM,64.153024,-51.904267,False,3,9.0,7.95,64.833800,-51.558270,2,School of Fisheries and Ocean Sciences,,,,,,,,,
300234011885250,SFOS-MS-0006,9/10/2012 8:00:08 PM,64.153021,-51.904264,False,3,9.0,8.05,64.161990,-53.543530,288,School of Fisheries and Ocean Sciences,,,,,,,,,
300234011885250,SFOS-MS-0006,9/10/2012 7:30:08 PM,64.152988,-51.904184,False,3,9.0,8.25,64.953200,-51.597110,2,School of Fisheries and Ocean Sciences,,,,,,,,,
300234011885250,SFOS-MS-0006,9/10/2012 7:00:08 PM,64.152985,-51.904231,False,3,9.0,8.60,64.953200,-51.597110,2,School of Fisheries and Ocean Sciences,,,,,,,,,
300234011885250,SFOS-MS-0006,9/10/2012 6:30:08 PM,64.152971,-51.904253,False,3,9.0,8.75,64.986300,-51.527830,3,School of Fisheries and Ocean Sciences,,,,,,,,,
300234011885250,SFOS-MS-0006,9/10/2012 6:00:38 PM,64.152955,-51.904225,False,3,9.0,8.90,63.575350,-58.142320,317,School of Fisheries and Ocean Sciences,,,,,,,,,
300234011885250,SFOS-MS-0006,9/10/2012 5:30:07 PM,64.152994,-51.904228,False,3,9.0,8.90,64.840900,-51.242610,100,School of Fisheries and Ocean Sciences,,,,,,,,,
300234011885250,SFOS-MS-0006,9/10/2012 5:00:08 PM,64.152985,-51.904214,False,3,9.0,9.00,64.119970,-51.566700,8,School of Fisheries and Ocean Sciences,,,,,,,,,
300234011885250,SFOS-MS-0006,9/10/2012 4:30:08 PM,64.152960,-51.904164,False,3,9.0,8.85,64.953200,-51.597110,2,School of Fisheries and Ocean Sciences,,,,,,,,,
300234011885250,SFOS-MS-0006,9/10/2012 4:00:37 PM,64.152985,-51.904203,False,3,9.0,8.85,64.119970,-51.566700,11,School of Fisheries and Ocean Sciences,,,,,,,,,
300234011885250,SFOS-MS-0006,9/10/2012 3:30:10 PM,64.152952,-51.904147,False,3,9.0,8.90,64.919600,-52.663500,71,School of Fisheries and Ocean Sciences,,,,,,,,,
300234011885250,SFOS-MS-0006,9/10/2012 3:00:07 PM,64.152969,-51.904206,False,3,9.0,8.90,64.398000,-45.213520,328,School of Fisheries and Ocean Sciences,,,,,,,,,
300234011885250,SFOS-MS-0006,9/10/2012 2:30:07 PM,64.153002,-51.904214,False,3,9.0,8.90,64.119970,-51.566700,9,School of Fisheries and Ocean Sciences,,,,,,,,,
300234011885250,SFOS-MS-0006,9/10/2012 2:00:08 PM,64.153007,-51.904256,False,3,9.0,8.95,64.953200,-51.597110,3,School of Fisheries and Ocean Sciences,,,,,,,,,
300234011885250,SFOS-MS-0006,9/10/2012 1:30:37 PM,64.152960,-51.904167,False,3,9.0,9.10,64.101340,-52.663500,100,School of Fisheries and Ocean Sciences,,,,,,,,,
300234011885250,SFOS-MS-0006,9/10/2012 1:00:09 PM,64.152713,-51.904211,False,3,9.0,8.65,64.109780,-52.174570,100,School of Fisheries and Ocean Sciences,,,,,,,,,
300234011885250,SFOS-MS-0006,9/10/2012 12:30:08 PM,64.152988,-51.904295,False,3,9.0,8.50,64.108010,-51.527830,6,School of Fisheries and Ocean Sciences,,,,,,,,,
300234011885250,SFOS-MS-0006,9/10/2012 12:00:07 PM,64.152982,-51.904225,False,3,9.0,8.40,64.119970,-51.566700,11,School of Fisheries and Ocean Sciences,,,,,,,,,
300234011885250,SFOS-MS-0006,9/10/2012 11:30:11 AM,64.153005,-51.904209,False,3,9.0,8.25,64.104700,-51.597110,5,School of Fisheries and Ocean Sciences,,,,,,,,,